Lid_Strength_Index
3 3 3 3 3 2 2 2 2 2 2 2 2 2 2 2 2 3 5 3 3 6 5 4 4 6 6 7 10 7 8 7 9 11 12 12 13 12 13 12 13 14 15 16 15 17 19 8 8 12 9 8 8 8
3 3 3 3 2 2 2 2 2 2 2 2 2 2 3 3 3 3 5 2 2 4 5 2 2 2 3 3 6 6 8 8 8 10 10 10 12 11 12 16 10 15 12 15 14 14 9 7 10 8 7 8 8 8
4 4 3 3 3 3 3 3 3 3 3 3 3 3 3 4 3 3 5 4 3 4 5 4 4 2 1 2 2 7 6 5 7 6 8 9 12 10 14 13 12 10 9 11 11 9 8 7 7 6 5 6 5 5
4 4 3 4 5 5 4 3 3 3 3 3 3 4 4 4 4 3 5 3 3 4 8 6 1 2 0 1 2 2 4 4 5 5 8 10 12 8 11 11 12 10 9 10 10 9 8 7 7 6 5 5 5 4
4 4 4 4 5 5 5 5 4 4 4 4 4 4 4 4 3 4 4 4 2 4 8 7 3 2 1 2 2 2 4 5 6 8 9 10 8 9 8 9 11 8 10 11 12 8 9 9 7 5 6 6 5 5
4 4 4 4 5 5 6 5 5 5 4 4 4 4 3 3 3 5 5 2 2 1 6 9 4 4 3 2 3 3 4 5 5 7 8 7 6 8 12 13 8 6 7 8 9 7 7 6 6 6 7 6 6 6
4 4 4 4 4 4 6 5 5 5 4 4 4 3 3 3 4 3 5 3 3 0 5 9 9 4 3 3 4 4 4 5 5 7 7 8 7 7 11 13 8 7 7 6 6 7 8 8 9 8 7 6 5 5
5 4 4 4 4 4 5 5 5 5 4 4 4 3 3 3 3 3 1 3 2 3 4 9 9 7 4 7 7 4 6 6 6 7 6 8 7 8 12 8 7 6 6 6 7 7 7 7 8 9 8 7 7 6
6 5 4 5 4 5 5 5 5 5 4 4 4 3 2 4 3 2 2 2 1 3 8 8 10 11 4 6 6 6 5 9 6 8 8 7 10 12 8 8 7 7 8 8 7 7 9 10 10 10 9 7 7 7
6 5 4 5 5 5 5 5 5 5 4 4 4 3 5 3 2 1 2 4 5 4 5 8 6 9 6 7 8 8 7 9 11 9 6 10 10 7 6 6 6 7 7 7 9 9 10 11 12 11 10 10 8 7
6 5 5 5 5 5 5 4 4 5 4 3 5 5 4 2 2 4 7 8 7 8 6 7 6 8 5 8 9 7 9 8 13 10 9 12 12 8 5 6 6 6 6 7 7 8 8 9 11 11 12 11 11 10
6 5 5 5 5 4 4 4 4 5 6 7 7 6 5 4 6 8 9 8 9 9 7 8 7 6 6 5 8 7 9 9 13 7 10 13 9 6 6 6 6 6 6 7 7 8 8 9 9 10 11 12 12 12
7 6 5 5 5 5 4 4 4 5 5 5 6 7 6 7 11 10 11 10 9 7 6 6 7 6 6 5 7 8 9 11 7 11 13 11 7 6 7 7 7 6 6 7 7 7 8 8 8 8 10 10 10 11
7 6 6 5 5 4 4 4 4 5 6 5 6 11 9 9 8 8 8 8 5 5 6 6 7 7 6 7 7 9 8 8 11 13 13 9 7 7 7 6 7 7 7 7 7 7 7 8 8 8 8 8 9 10
7 7 6 5 4 4 5 4 4 4 5 6 6 11 8 6 5 5 5 5 5 4 5 6 7 6 7 7 8 9 10 11 12 13 9 7 7 7 7 7 7 7 7 7 7 7 7 7 8 8 8 8 8 8
7 7 6 5 5 5 5 4 3 2 3 5 5 7 6 7 6 5 5 6 4 4 5 5 6 8 9 9 9 10 11 13 11 8 7 6 7 7 7 7 7 7 7 7 7 7 7 7 8 8 8 8 8 9
7 8 6 6 6 5 4 4 2 4 5 6 6 4 6 6 6 6 5 5 3 5 8 6 8 9 8 9 10 9 11 9 7 7 6 6 7 7 7 7 7 7 7 7 7 7 7 6 8 8 9 8 8 7
9 7 7 7 6 5 3 3 3 5 7 6 7 6 4 5 5 5 4 4 4 5 5 7 6 8 10 10 11 8 7 6 6 6 6 6 6 6 7 7 7 7 7 7 7 7 7 8 8 8 7 7 7 7
8 7 7 7 7 7 6 3 3 7 6 5 4 4 4 5 4 3 3 4 3 3 5 6 7 9 9 7 7 6 6 7 7 7 6 5 6 6 7 7 6 7 7 7 7 8 7 7 7 8 8 8 9 9
7 7 6 6 6 7 6 5 2 5 7 5 4 5 5 5 4 4 4 4 4 5 6 7 8 7 7 6 5 5 6 6 7 7 7 6 6 6 7 7 7 7 7 7 7 7 7 7 7 7 8 8 9 9
7 5 5 5 5 5 6 5 5 4 5 6 4 4 6 4 5 6 6 4 5 7 7 6 6 5 4 3 4 5 6 5 7 6 7 7 6 5 6 6 6 5 6 7 7 7 8 7 7 7 7 8 8 8
7 5 6 4 7 6 6 3 5 4 5 5 5 5 6 7 6 6 4 6 7 6 5 5 5 4 4 4 5 5 5 6 6 7 7 6 6 5 5 5 5 6 7 7 6 7 7 7 7 6 7 8 8 8
6 6 6 6 7 8 8 3 6 5 7 7 6 7 7 7 6 4 7 6 6 4 4 4 3 3 3 4 4 5 5 6 7 7 7 6 6 5 5 5 5 6 7 6 6 6 7 8 7 6 6 6 7 8
7 7 8 8 7 9 5 6 5 6 6 7 8 9 8 7 5 8 9 7 5 4 4 4 4 4 4 4 5 5 5 5 6 6 6 6 7 6 5 5 5 5 5 5 5 5 6 6 7 6 6 6 6 7
11 11 10 13 6 7 8 7 7 7 9 8 8 8 8 7 9 9 9 7 6 5 4 3 3 4 5 4 4 4 4 5 6 7 6 6 6 6 6 6 5 5 5 5 6 6 6 6 6 6 6 6 7 7
13 9 11 8 7 7 7 9 8 8 8 8 8 7 7 8 10 11 9 7 6 5 4 4 4 4 4 3 4 5 5 5 5 7 6 6 7 7 7 7 7 6 4 4 5 5 5 5 6 6 7 7 9 6
13 8 6 3 4 5 6 6 6 7 8 8 8 8 9 11 11 9 5 4 5 4 3 3 3 3 4 4 3 3 4 4 5 5 5 6 6 5 5 6 6 5 4 4 4 4 5 5 5 5 6 6 6 6
7 6 8 6 6 5 7 7 7 8 7 6 7 9 10 10 10 6 5 3 3 2 3 2 2 2 3 4 4 4 5 4 4 5 5 6 5 5 5 6 5 9 5 5 4 4 4 4 5 5 6 6 7 6
7 5 5 7 6 6 6 7 7 6 5 6 7 8 7 5 4 4 3 2 2 3 3 4 3 3 3 3 3 4 5 5 6 7 8 8 8 7 5 6 5 4 5 7 11 8 7 7 6 5 5 6 6 6
7 4 6 6 7 8 6 5 5 4 3 4 4 4 4 4 3 2 2 2 3 3 3 3 3 3 4 4 4 5 5 5 6 6 8 8 7 5 5 5 5 5 5 6 6 6 10 7 8 6 6 6 6 7
4 5 6 6 7 5 4 3 3 3 4 4 4 5 5 4 3 2 2 2 2 2 3 3 3 2 3 3 4 5 6 5 4 4 5 5 5 5 5 6 5 4 4 5 6 6 7 7 7 6 6 6 7 7
5 6 7 8 7 4 4 5 5 5 5 5 5 4 4 5 6 4 2 2 3 4 5 3 3 3 2 1 2 3 7 3 3 4 4 5 5 5 4 5 4 4 4 5 5 6 6 6 6 6 6 6 6 6
5 5 5 6 6 6 5 5 6 6 6 6 7 6 6 6 8 5 3 1 3 4 4 3 2 1 1 2 2 3 5 2 6 11 12 12 9 7 5 5 4 4 4 4 5 5 6 5 6 6 6 6 6 6